Weather History for Key West NAF, FL

Change the Weather History Date:

Friday, January 18, 2013

  Actual Average Record
Temperature  
Mean Temperature 64 °F -  
Max Temperature 68 °F 74 °F 85 °F (1960)
Min Temperature 60 °F 64 °F 48 °F (1981)
Degree Days  
Heating Degree Days 1    
Growing Degree Days 14 (Base 50)    
Moisture  
Dew Point 54 °F    
Average Humidity 69    
Maximum Humidity 75    
Minimum Humidity 59    
Precipitation  
Precipitation 0.00 in - - ()
Sea Level Pressure  
Sea Level Pressure 30.19 in    
Wind  
Wind Speed 12 mph (North)    
Max Wind Speed 18 mph    
Max Gust Speed 24 mph    
Visibility 10 miles    
Events      
Averages and records for this station are not official NWS values.
T = Trace of Precipitation, MM = Missing Value Source: NWS Daily Summary

Daily Weather History Graph

Daily Weather History Graph

Search for Another Location

Airport:

Trip Planner

Search our weather history database for the weather conditions in past years. The results will help you decide how hot, cold, wet, or windy it might be!

Date:

Astronomy

Jan. 18, 2013 Rise Set
Actual Time 7:12 AM EST 6:02 PM EST
Civil Twilight 6:48 AM EST 6:26 PM EST
Nautical Twilight 6:20 AM EST 6:54 PM EST
Astronomical Twilight 5:52 AM EST 7:21 PM EST
Moon 11:42 AM EST (1/18) 12:01 AM EST (1/18)
Length of Visible Light 11h 38m
Length of Day
10h 49m
Waxing Crescent, 47% of the Moon is Illuminated
Jan 18
Waxing Crescent
Jan 18
First Quarter
Jan 26
Full
Feb 3
Last Quarter
Feb 10
New

Hourly Weather History & Observations

Time (EST) Temp. Dew Point Humidity Pressure Visibility Wind Dir Wind Speed Gust Speed Precip Events Conditions
12:53 AM 66.9 °F 57.0 °F 70% 30.14 in 10.0 mi NNW 17.3 mph 23.0 mph N/A   Overcast
1:53 AM 66.9 °F 57.0 °F 70% 30.14 in 10.0 mi North 13.8 mph 20.7 mph N/A   Overcast
2:53 AM 66.9 °F 57.0 °F 70% 30.13 in 10.0 mi NNW 18.4 mph 24.2 mph N/A   Overcast
3:53 AM 66.9 °F 55.9 °F 68% 30.14 in 10.0 mi NNW 15.0 mph 21.9 mph N/A   Overcast
4:53 AM 66.0 °F 55.9 °F 70% 30.14 in 10.0 mi NNW 13.8 mph 20.7 mph N/A   Overcast
5:53 AM 66.0 °F 55.0 °F 68% 30.15 in 10.0 mi NNW 15.0 mph 21.9 mph N/A   Overcast
6:13 AM 66.2 °F 55.4 °F 68% 30.17 in 10.0 mi NNW 13.8 mph - N/A   Overcast
6:53 AM 66.0 °F 54.0 °F 65% 30.17 in 10.0 mi NNW 11.5 mph 19.6 mph N/A   Mostly Cloudy
7:53 AM 66.0 °F 54.0 °F 65% 30.19 in 10.0 mi North 13.8 mph 20.7 mph N/A   Mostly Cloudy
8:53 AM 66.0 °F 54.0 °F 65% 30.22 in 10.0 mi North 11.5 mph - N/A   Overcast
9:53 AM 66.9 °F 53.1 °F 61% 30.23 in 10.0 mi North 12.7 mph - N/A   Overcast
10:53 AM 68.0 °F 53.1 °F 59% 30.23 in 10.0 mi North 10.4 mph - N/A   Overcast
11:53 AM 66.9 °F 54.0 °F 63% 30.22 in 10.0 mi NNW 11.5 mph - N/A   Overcast
12:53 PM 64.0 °F 55.0 °F 73% 30.19 in 10.0 mi NNE 10.4 mph - N/A   Overcast
1:53 PM 64.0 °F 54.0 °F 70% 30.17 in 10.0 mi North 9.2 mph - N/A   Overcast
2:53 PM 62.1 °F 54.0 °F 75% 30.16 in 10.0 mi NNE 12.7 mph - N/A   Mostly Cloudy
3:53 PM 63.0 °F 54.0 °F 72% 30.17 in 10.0 mi North 12.7 mph - 0.00 in   Overcast
4:53 PM 62.1 °F 53.1 °F 72% 30.18 in 10.0 mi North 12.7 mph - N/A   Mostly Cloudy
5:14 PM 62.6 °F 53.6 °F 72% 30.18 in 10.0 mi North 10.4 mph - N/A   Mostly Cloudy
5:53 PM 61.0 °F 52.0 °F 72% 30.19 in 10.0 mi North 10.4 mph 18.4 mph N/A   Scattered Clouds
6:12 PM 60.8 °F 51.8 °F 72% 30.20 in 10.0 mi North 12.7 mph - N/A   Mostly Cloudy
6:43 PM 60.8 °F 51.8 °F 72% 30.20 in 10.0 mi North 6.9 mph - N/A   Scattered Clouds
6:53 PM 61.0 °F 51.1 °F 70% 30.20 in 10.0 mi NNE 4.6 mph - N/A   Scattered Clouds
7:53 PM 60.1 °F 51.1 °F 72% 30.21 in 10.0 mi Calm Calm - N/A   Clear
8:53 PM 61.0 °F 53.1 °F 75% 30.21 in 10.0 mi NE 9.2 mph - N/A   Partly Cloudy
9:53 PM 62.1 °F 52.0 °F 70% 30.22 in 10.0 mi NE 3.5 mph - N/A   Mostly Cloudy
10:37 PM 62.6 °F 51.8 °F 68% 30.21 in 10.0 mi ENE 4.6 mph - N/A   Overcast
10:53 PM 63.0 °F 52.0 °F 67% 30.21 in 10.0 mi ENE 5.8 mph - N/A   Overcast
11:10 PM 62.6 °F 51.8 °F 68% 30.21 in 10.0 mi NE 3.5 mph - N/A   Overcast
11:53 PM 62.1 °F 52.0 °F 70% 30.19 in 10.0 mi ENE 4.6 mph - N/A   Clear